Banff, Alberta

10:43 PM MST on November 22, 2017 (GMT -0700)
Banff

Weather History for CWZG - September, 2014

Change the Weather History Date:

Thursday, September 4, 2014

  Actual Average Record
Temperature  
Mean Temperature 44 °F -  
Max Temperature 58 °F - - ()
Min Temperature 31 °F - - ()
Degree Days  
Heating Degree Days 20    
Moisture  
Dew Point 35 °F    
Average Humidity 77    
Maximum Humidity 100    
Minimum Humidity 39    
Precipitation  
Precipitation 0.01 in - - ()
Sea Level Pressure  
Sea Level Pressure 30.19 in    
Wind  
Wind Speed 3 mph ()    
Max Wind Speed 10 mph    
Max Gust Speed -    
T = Trace of Precipitation, MM = Missing Value Source: Averaged Metar Reports

Daily Weather History Graph

Daily Weather History Graph

Search for Another Location

Airport or City:

Trip Planner

Search our weather history database for the weather conditions in past years. The results will help you decide how hot, cold, wet, or windy it might be!

Date:

Astronomy

Sep. 04, 2014 Rise Set
Actual Time 7:00 AM MDT 8:21 PM MDT
Civil Twilight 6:25 AM MDT 8:55 PM MDT
Nautical Twilight 5:44 AM MDT 9:36 PM MDT
Astronomical Twilight 4:58 AM MDT 10:22 PM MDT
Moon 5:22 PM MDT (9/4) 1:33 AM MDT (9/4)
Length of Visible Light 14h 29m
Length of Day
13h 20m
Waxing Gibbous, 75% of the Moon is Illuminated
Sep 4
Waxing Gibbous
Sep 8
Full
Sep 15
Last Quarter
Sep 24
New
Oct 1
First Quarter

Hourly Weather History & Observations

Time (MDT) Temp. Windchill Dew Point Humidity Pressure Visibility Wind Dir Wind Speed Gust Speed Precip Events Conditions
12:00 AM 31.5 °F - 31.5 °F 100% 30.17 in - ENE 1.2 mph - N/A   Unknown
1:00 AM 31.6 °F - 31.6 °F 100% 30.17 in - NW 1.2 mph - N/A   Unknown
2:00 AM 31.6 °F - 31.6 °F 100% 30.18 in - Calm Calm - N/A   Unknown
3:00 AM 31.5 °F - 31.5 °F 100% 30.18 in - SW 2.3 mph - N/A   Unknown
4:00 AM 31.8 °F 28.5 °F 31.8 °F 100% 30.18 in - SW 3.5 mph - N/A   Unknown
5:00 AM 31.5 °F - 31.5 °F 100% 30.19 in - WSW 1.2 mph - N/A   Unknown
6:00 AM 31.8 °F - 31.8 °F 100% 30.20 in - WSW 2.3 mph - 0.01 in   Unknown
7:00 AM 31.5 °F - 31.5 °F 100% 30.22 in - NW 1.2 mph - N/A   Unknown
8:00 AM 33.8 °F - 33.6 °F 99% 30.22 in - WSW 2.3 mph - N/A   Unknown
9:00 AM 39.4 °F 35.2 °F 36.7 °F 90% 30.23 in - SW 5.8 mph - N/A   Unknown
10:00 AM 42.6 °F 39.0 °F 37.0 °F 81% 30.22 in - SW 5.8 mph - N/A   Unknown
11:00 AM 47.5 °F - 38.3 °F 70% 30.20 in - SW 5.8 mph - N/A   Unknown
12:00 PM 48.2 °F - 39.6 °F 72% 30.20 in - SW 8.1 mph - N/A   Unknown
1:00 PM 51.4 °F - 39.7 °F 64% 30.18 in - WSW 5.8 mph - N/A   Unknown
2:00 PM 55.2 °F - 37.4 °F 51% 30.16 in - WSW 5.8 mph - N/A   Unknown
3:00 PM 56.5 °F - 33.4 °F 42% 30.16 in - SW 8.1 mph - N/A   Unknown
4:00 PM 58.5 °F - 33.3 °F 39% 30.15 in - SSW 10.4 mph - N/A   Unknown
6:00 PM 54.5 °F - 34.9 °F 48% 30.17 in - SW 6.9 mph - N/A   Unknown
7:00 PM 57.0 °F - 33.1 °F 40% 30.17 in - SW 5.8 mph - N/A   Unknown
8:00 PM 52.9 °F - 37.6 °F 56% 30.19 in - West 1.2 mph - N/A   Unknown
9:00 PM 49.3 °F - 38.8 °F 67% 30.21 in - SW 2.3 mph - N/A   Unknown
10:00 PM 48.4 °F - 38.8 °F 70% 30.23 in - SW 4.6 mph - N/A   Unknown
11:00 PM 45.7 °F - 38.3 °F 75% 30.24 in - SW 2.3 mph - N/A   Unknown